Time,TemperatureF,DewpointF,PressureIn,WindDirection,WindDirectionDegrees,WindSpeedMPH,WindSpeedGustMPH,Humidity,HourlyPrecipIn,Conditions,Clouds,dailyrainin,SoftwareType,DateUTC
2013-08-26 03:51:00,76.3,71.1,30.13,SE,135,0.0,4.0,84,0.00,,,0.00,meteohub,2013-08-26 08:51:00,
2013-08-26 03:52:00,76.6,71.4,30.13,SE,135,0.0,4.0,84,0.00,,,0.00,meteohub,2013-08-26 08:52:00,
2013-08-26 03:57:00,76.6,71.4,30.12,West,270,1.0,1.0,84,0.00,,,0.00,meteohub,2013-08-26 08:57:00,
2013-08-26 04:02:00,77.0,71.4,30.12,West,270,1.0,1.0,83,0.00,,,0.00,meteohub,2013-08-26 09:02:00,
2013-08-26 04:07:00,77.0,71.1,30.12,West,270,0.0,2.0,82,0.00,,,0.00,meteohub,2013-08-26 09:07:00,
2013-08-26 04:12:00,77.2,71.2,30.12,West,270,1.0,2.0,82,0.00,,,0.00,meteohub,2013-08-26 09:12:00,
2013-08-26 04:17:00,77.2,71.2,30.13,East,90,2.0,2.0,82,0.00,,,0.00,meteohub,2013-08-26 09:17:00,
2013-08-26 04:22:00,77.4,71.4,30.12,North,0,1.0,2.0,82,0.00,,,0.00,meteohub,2013-08-26 09:22:00,
2013-08-26 04:27:00,77.4,71.4,30.12,NW,315,2.0,2.0,82,0.00,,,0.00,meteohub,2013-08-26 09:27:00,
2013-08-26 04:32:00,77.4,71.1,30.12,SW,225,0.0,2.0,81,0.00,,,0.00,meteohub,2013-08-26 09:32:00,
2013-08-26 04:37:00,77.2,70.9,30.13,SW,225,0.0,2.0,81,0.00,,,0.00,meteohub,2013-08-26 09:37:00,
2013-08-26 04:42:00,77.2,71.2,30.12,SW,225,0.0,2.0,82,0.00,,,0.00,meteohub,2013-08-26 09:42:00,
2013-08-26 04:47:00,77.0,71.1,30.12,SW,225,0.0,1.0,82,0.00,,,0.00,meteohub,2013-08-26 09:47:00,
2013-08-26 04:52:00,77.0,71.1,30.12,SW,225,0.0,1.0,82,0.00,,,0.00,meteohub,2013-08-26 09:52:00,
2013-08-26 04:57:00,77.0,71.1,30.12,SW,225,0.0,1.0,82,0.00,,,0.00,meteohub,2013-08-26 09:57:00,
2013-08-26 05:02:00,77.0,71.1,30.12,SW,225,0.0,1.0,82,0.00,,,0.00,meteohub,2013-08-26 10:02:00,
2013-08-26 05:07:00,77.0,71.4,30.12,South,180,1.0,1.0,83,0.00,,,0.00,meteohub,2013-08-26 10:07:00,
2013-08-26 05:12:00,77.2,71.6,30.13,NW,315,1.0,1.0,83,0.00,,,0.00,meteohub,2013-08-26 10:12:00,
2013-08-26 05:17:00,77.2,71.6,30.12,NW,315,1.0,2.0,83,0.00,,,0.00,meteohub,2013-08-26 10:17:00,
2013-08-26 05:23:00,77.2,71.6,30.12,NW,315,4.0,4.0,83,0.00,,,0.00,meteohub,2013-08-26 10:23:00,
2013-08-26 05:28:00,77.4,71.8,30.13,West,270,2.0,2.0,83,0.00,,,0.00,meteohub,2013-08-26 10:28:00,
2013-08-26 05:33:00,77.4,71.8,30.13,NNW,338,2.0,4.0,83,0.00,,,0.00,meteohub,2013-08-26 10:33:00,
2013-08-26 05:38:00,77.4,71.8,30.13,NW,315,1.0,4.0,83,0.00,,,0.00,meteohub,2013-08-26 10:38:00,
2013-08-26 05:43:00,77.4,71.8,30.13,NW,315,1.0,2.0,83,0.00,,,0.00,meteohub,2013-08-26 10:43:00,
2013-08-26 05:48:00,77.4,71.8,30.13,NW,315,2.0,2.0,83,0.00,,,0.00,meteohub,2013-08-26 10:48:00,
2013-08-26 05:53:00,77.5,72.0,30.13,NW,315,1.0,2.0,83,0.00,,,0.00,meteohub,2013-08-26 10:53:00,
2013-08-26 05:58:00,77.5,72.0,30.14,West,270,1.0,2.0,83,0.00,,,0.00,meteohub,2013-08-26 10:58:00,
2013-08-26 06:03:00,77.4,71.8,30.13,North,0,2.0,2.0,83,0.00,,,0.00,meteohub,2013-08-26 11:03:00,
2013-08-26 06:08:00,77.4,71.8,30.13,NW,315,1.0,3.0,83,0.00,,,0.00,meteohub,2013-08-26 11:08:00,
2013-08-26 06:13:00,77.4,71.8,30.14,NW,315,2.0,3.0,83,0.00,,,0.00,meteohub,2013-08-26 11:13:00,
2013-08-26 06:18:00,77.4,71.8,30.13,North,0,2.0,3.0,83,0.00,,,0.00,meteohub,2013-08-26 11:18:00,
2013-08-26 06:23:00,77.4,71.8,30.14,South,180,2.0,2.0,83,0.00,,,0.00,meteohub,2013-08-26 11:23:00,
2013-08-26 06:28:00,77.4,71.8,30.14,North,0,1.0,2.0,83,0.00,,,0.00,meteohub,2013-08-26 11:28:00,
2013-08-26 06:33:00,77.2,71.6,30.14,East,90,2.0,2.0,83,0.00,,,0.00,meteohub,2013-08-26 11:33:00,
2013-08-26 06:39:00,77.2,71.6,30.14,SW,225,0.0,2.0,83,0.00,,,0.00,meteohub,2013-08-26 11:39:00,
2013-08-26 06:44:00,77.2,71.6,30.14,NE,45,1.0,2.0,83,0.00,,,0.00,meteohub,2013-08-26 11:44:00,
2013-08-26 06:49:00,77.2,71.6,30.14,North,0,2.0,2.0,83,0.00,,,0.00,meteohub,2013-08-26 11:49:00,
2013-08-26 06:54:00,77.0,71.4,30.14,East,90,2.0,2.0,83,0.00,,,0.00,meteohub,2013-08-26 11:54:00,
2013-08-26 06:59:00,77.0,71.4,30.14,SSW,203,2.0,2.0,83,0.00,,,0.00,meteohub,2013-08-26 11:59:00,
2013-08-26 07:04:00,77.0,71.8,30.14,West,270,2.0,2.0,84,0.00,,,0.00,meteohub,2013-08-26 12:04:00,
2013-08-26 07:09:00,77.0,71.8,30.15,NW,315,2.0,2.0,84,0.00,,,0.00,meteohub,2013-08-26 12:09:00,
2013-08-26 07:14:00,77.0,71.8,30.15,East,90,2.0,2.0,84,0.00,,,0.00,meteohub,2013-08-26 12:14:00,
2013-08-26 07:19:00,77.2,72.0,30.15,North,0,2.0,2.0,84,0.00,,,0.00,meteohub,2013-08-26 12:19:00,
2013-08-26 07:24:00,77.2,72.0,30.15,WNW,293,2.0,2.0,84,0.00,,,0.00,meteohub,2013-08-26 12:24:00,
2013-08-26 07:29:00,77.4,72.1,30.15,North,0,1.0,2.0,84,0.00,,,0.00,meteohub,2013-08-26 12:29:00,
2013-08-26 07:34:00,77.5,72.3,30.15,SW,225,2.0,2.0,84,0.00,,,0.00,meteohub,2013-08-26 12:34:00,
2013-08-26 07:39:00,77.7,72.1,30.15,NW,315,5.0,5.0,83,0.00,,,0.00,meteohub,2013-08-26 12:39:00,
2013-08-26 07:45:00,77.7,72.1,30.15,NE,45,2.0,5.0,83,0.00,,,0.00,meteohub,2013-08-26 12:45:00,
2013-08-26 07:50:00,77.7,72.1,30.15,West,270,2.0,5.0,83,0.00,,,0.00,meteohub,2013-08-26 12:50:00,
2013-08-26 07:55:00,77.9,72.3,30.15,North,0,2.0,5.0,83,0.00,,,0.00,meteohub,2013-08-26 12:55:00,
2013-08-26 08:00:00,78.1,72.5,30.16,East,90,2.0,4.0,83,0.00,,,0.00,meteohub,2013-08-26 13:00:00,
2013-08-26 08:05:00,78.4,72.5,30.15,North,0,2.0,4.0,82,0.00,,,0.00,meteohub,2013-08-26 13:05:00,
2013-08-26 08:10:00,79.0,72.3,30.15,WNW,293,2.0,4.0,80,0.00,,,0.00,meteohub,2013-08-26 13:10:00,
2013-08-26 08:15:00,79.2,71.8,30.15,North,0,2.0,4.0,78,0.00,,,0.00,meteohub,2013-08-26 13:15:00,
2013-08-26 08:20:00,79.3,72.0,30.15,NW,315,2.0,4.0,78,0.00,,,0.00,meteohub,2013-08-26 13:20:00,
2013-08-26 08:25:00,79.3,71.4,30.15,East,90,1.0,2.0,77,0.00,,,0.00,meteohub,2013-08-26 13:25:00,
2013-08-26 08:30:00,79.3,72.0,30.16,North,0,2.0,4.0,78,0.00,,,0.00,meteohub,2013-08-26 13:30:00,
2013-08-26 08:35:00,79.5,72.1,30.16,NE,45,2.0,4.0,78,0.00,,,0.00,meteohub,2013-08-26 13:35:00,
2013-08-26 08:40:00,79.7,71.8,30.16,East,90,4.0,6.0,77,0.00,,,0.00,meteohub,2013-08-26 13:40:00,
2013-08-26 08:46:00,79.7,71.8,30.16,East,90,3.0,6.0,77,0.00,,,0.00,meteohub,2013-08-26 13:46:00,
2013-08-26 08:51:00,79.9,72.0,30.17,West,270,2.0,6.0,77,0.00,,,0.00,meteohub,2013-08-26 13:51:00,
2013-08-26 08:56:00,80.4,72.5,30.16,SSE,158,2.0,4.0,77,0.00,,,0.00,meteohub,2013-08-26 13:56:00,
2013-08-26 09:01:00,81.0,72.0,30.16,NW,315,2.0,4.0,74,0.00,,,0.00,meteohub,2013-08-26 14:01:00,
2013-08-26 09:06:00,81.0,71.4,30.16,North,0,4.0,4.0,73,0.00,,,0.00,meteohub,2013-08-26 14:06:00,
2013-08-26 09:11:00,80.6,71.6,30.17,North,0,2.0,4.0,74,0.00,,,0.00,meteohub,2013-08-26 14:11:00,
2013-08-26 09:16:00,80.8,71.8,30.17,NE,45,4.0,4.0,74,0.00,,,0.00,meteohub,2013-08-26 14:16:00,
2013-08-26 09:21:00,81.0,71.4,30.17,SW,225,4.0,4.0,73,0.00,,,0.00,meteohub,2013-08-26 14:21:00,
2013-08-26 09:26:00,80.8,71.8,30.17,SW,225,4.0,5.0,74,0.00,,,0.00,meteohub,2013-08-26 14:26:00,
2013-08-26 09:31:00,81.0,72.0,30.17,WSW,248,2.0,5.0,74,0.00,,,0.00,meteohub,2013-08-26 14:31:00,
2013-08-26 09:36:00,81.7,72.1,30.18,SW,225,2.0,5.0,73,0.00,,,0.00,meteohub,2013-08-26 14:36:00,
2013-08-26 09:41:00,82.6,72.7,30.17,WNW,293,2.0,4.0,72,0.00,,,0.00,meteohub,2013-08-26 14:41:00,
2013-08-26 09:46:00,83.1,72.0,30.18,NE,45,3.0,4.0,69,0.00,,,0.00,meteohub,2013-08-26 14:46:00,
2013-08-26 09:51:00,82.8,72.0,30.18,NE,45,2.0,4.0,70,0.00,,,0.00,meteohub,2013-08-26 14:51:00,
2013-08-26 09:56:00,83.3,72.5,30.18,West,270,3.0,4.0,70,0.00,,,0.00,meteohub,2013-08-26 14:56:00,
2013-08-26 10:01:00,83.3,72.1,30.18,East,90,3.0,4.0,69,0.00,,,0.00,meteohub,2013-08-26 15:01:00,
2013-08-26 10:07:00,83.8,71.8,30.18,NW,315,2.0,4.0,67,0.00,,,0.00,meteohub,2013-08-26 15:07:00,
2013-08-26 10:12:00,83.8,71.8,30.17,East,90,2.0,5.0,67,0.00,,,0.00,meteohub,2013-08-26 15:12:00,
2013-08-26 10:17:00,83.8,71.2,30.18,NE,45,5.0,5.0,66,0.00,,,0.00,meteohub,2013-08-26 15:17:00,
2013-08-26 10:22:00,84.0,72.0,30.18,ESE,113,2.0,5.0,67,0.00,,,0.00,meteohub,2013-08-26 15:22:00,
2013-08-26 10:27:00,84.9,71.8,30.17,NE,45,1.0,5.0,65,0.00,,,0.00,meteohub,2013-08-26 15:27:00,
2013-08-26 10:32:00,85.1,71.6,30.17,NW,315,7.0,7.0,64,0.00,,,0.00,meteohub,2013-08-26 15:32:00,
2013-08-26 10:37:00,84.4,70.9,30.18,NNW,338,6.0,7.0,64,0.00,,,0.00,meteohub,2013-08-26 15:37:00,
2013-08-26 10:42:00,83.1,71.1,30.18,SW,225,2.0,7.0,67,0.00,,,0.00,meteohub,2013-08-26 15:42:00,
2013-08-26 10:47:00,83.5,71.4,30.18,North,0,2.0,7.0,67,0.00,,,0.00,meteohub,2013-08-26 15:47:00,
2013-08-26 10:52:00,84.0,72.0,30.18,East,90,2.0,7.0,67,0.00,,,0.00,meteohub,2013-08-26 15:52:00,
2013-08-26 10:57:00,84.6,71.4,30.18,WSW,248,3.0,6.0,65,0.00,,,0.00,meteohub,2013-08-26 15:57:00,
2013-08-26 11:02:00,83.8,70.9,30.19,NE,45,5.0,6.0,65,0.00,,,0.00,meteohub,2013-08-26 16:02:00,
2013-08-26 11:07:00,83.3,70.7,30.19,NE,45,3.0,8.0,66,0.00,,,0.00,meteohub,2013-08-26 16:07:00,
2013-08-26 11:12:00,83.5,71.4,30.18,West,270,4.0,8.0,67,0.00,,,0.00,meteohub,2013-08-26 16:12:00,
2013-08-26 11:17:00,85.1,72.0,30.19,NW,315,2.0,6.0,65,0.00,,,0.00,meteohub,2013-08-26 16:17:00,
2013-08-26 11:22:00,88.0,72.3,30.19,NW,315,2.0,6.0,60,0.00,,,0.00,meteohub,2013-08-26 16:22:00,
2013-08-26 11:27:00,88.3,71.2,30.19,North,0,4.0,6.0,57,0.00,,,0.00,meteohub,2013-08-26 16:27:00,
2013-08-26 11:32:00,87.6,71.1,30.18,NE,45,3.0,4.0,58,0.00,,,0.00,meteohub,2013-08-26 16:32:00,
2013-08-26 11:37:00,86.9,70.9,30.19,SW,225,3.0,4.0,59,0.00,,,0.00,meteohub,2013-08-26 16:37:00,
2013-08-26 11:42:00,86.2,70.7,30.19,SSW,203,2.0,4.0,60,0.00,,,0.00,meteohub,2013-08-26 16:42:00,
2013-08-26 11:47:00,85.8,71.2,30.18,NE,45,2.0,3.0,62,0.00,,,0.00,meteohub,2013-08-26 16:47:00,
2013-08-26 11:53:00,85.5,70.9,30.19,West,270,3.0,5.0,62,0.00,,,0.00,meteohub,2013-08-26 16:53:00,
2013-08-26 11:58:00,87.4,71.4,30.18,SW,225,3.0,5.0,59,0.00,,,0.00,meteohub,2013-08-26 16:58:00,
2013-08-26 12:03:00,87.6,70.5,30.18,NE,45,3.0,5.0,57,0.00,,,0.00,meteohub,2013-08-26 17:03:00,
2013-08-26 12:08:00,86.9,70.9,30.17,NE,45,2.0,5.0,59,0.00,,,0.00,meteohub,2013-08-26 17:08:00,
2013-08-26 12:13:00,86.7,70.7,30.17,East,90,2.0,5.0,59,0.00,,,0.00,meteohub,2013-08-26 17:13:00,
2013-08-26 12:18:00,86.7,70.2,30.17,NE,45,2.0,5.0,58,0.00,,,0.00,meteohub,2013-08-26 17:18:00,
2013-08-26 12:23:00,88.0,70.3,30.17,ENE,68,4.0,4.0,56,0.00,,,0.00,meteohub,2013-08-26 17:23:00,
2013-08-26 12:28:00,88.3,70.2,30.17,NE,45,3.0,5.0,55,0.00,,,0.00,meteohub,2013-08-26 17:28:00,
2013-08-26 12:33:00,88.7,70.5,30.16,NW,315,2.0,5.0,55,0.00,,,0.00,meteohub,2013-08-26 17:33:00,
2013-08-26 12:38:00,90.1,70.7,30.16,West,270,3.0,5.0,53,0.00,,,0.00,meteohub,2013-08-26 17:38:00,
2013-08-26 12:43:00,90.7,70.0,30.16,SSE,158,2.0,4.0,51,0.00,,,0.00,meteohub,2013-08-26 17:43:00,
2013-08-26 12:48:00,91.0,70.3,30.16,West,270,4.0,4.0,51,0.00,,,0.00,meteohub,2013-08-26 17:48:00,
2013-08-26 12:53:00,91.4,70.2,30.16,NE,45,2.0,4.0,50,0.00,,,0.00,meteohub,2013-08-26 17:53:00,
2013-08-26 12:58:00,91.0,69.8,30.15,South,180,2.0,4.0,50,0.00,,,0.00,meteohub,2013-08-26 17:58:00,
2013-08-26 13:03:00,92.7,70.7,30.15,West,270,3.0,4.0,49,0.00,,,0.00,meteohub,2013-08-26 18:03:00,
2013-08-26 13:09:00,92.5,70.0,30.14,WNW,293,2.0,4.0,48,0.00,,,0.00,meteohub,2013-08-26 18:09:00,
2013-08-26 13:14:00,93.4,69.4,30.14,East,90,2.0,6.0,46,0.00,,,0.00,meteohub,2013-08-26 18:14:00,
2013-08-26 13:19:00,93.9,70.0,30.14,NE,45,3.0,6.0,46,0.00,,,0.00,meteohub,2013-08-26 18:19:00,
2013-08-26 13:24:00,93.9,70.0,30.14,East,90,4.0,6.0,46,0.00,,,0.00,meteohub,2013-08-26 18:24:00,
2013-08-26 13:29:00,93.9,70.7,30.14,South,180,4.0,5.0,47,0.00,,,0.00,meteohub,2013-08-26 18:29:00,
2013-08-26 13:34:00,94.5,70.5,30.14,NW,315,2.0,5.0,46,0.00,,,0.00,meteohub,2013-08-26 18:34:00,
2013-08-26 13:39:00,96.1,70.0,30.14,ENE,68,4.0,5.0,43,0.00,,,0.00,meteohub,2013-08-26 18:39:00,
2013-08-26 13:44:00,93.7,69.3,30.13,South,180,2.0,6.0,45,0.00,,,0.00,meteohub,2013-08-26 18:44:00,
2013-08-26 13:49:00,94.1,69.4,30.13,East,90,2.0,6.0,45,0.00,,,0.00,meteohub,2013-08-26 18:49:00,
2013-08-26 13:54:00,93.4,68.9,30.13,SW,225,2.0,6.0,45,0.00,,,0.00,meteohub,2013-08-26 18:54:00,
2013-08-26 13:59:00,95.4,70.0,30.12,ENE,68,2.0,4.0,44,0.00,,,0.00,meteohub,2013-08-26 18:59:00,
2013-08-26 14:04:00,95.0,68.9,30.12,NE,45,4.0,4.0,43,0.00,,,0.00,meteohub,2013-08-26 19:04:00,
2013-08-26 14:09:00,93.7,69.3,30.12,East,90,3.0,4.0,45,0.00,,,0.00,meteohub,2013-08-26 19:09:00,
2013-08-26 14:14:00,95.0,70.3,30.12,NW,315,4.0,4.0,45,0.00,,,0.00,meteohub,2013-08-26 19:14:00,
2013-08-26 14:20:00,97.3,70.3,30.12,NW,315,2.0,4.0,42,0.00,,,0.00,meteohub,2013-08-26 19:20:00,
2013-08-26 14:25:00,97.5,70.5,30.11,South,180,4.0,4.0,42,0.00,,,0.00,meteohub,2013-08-26 19:25:00,
2013-08-26 14:30:00,98.8,67.1,30.11,East,90,2.0,5.0,36,0.00,,,0.00,meteohub,2013-08-26 19:30:00,
2013-08-26 14:35:00,97.3,68.2,30.11,North,0,8.0,8.0,39,0.00,,,0.00,meteohub,2013-08-26 19:35:00,
2013-08-26 14:40:00,96.1,68.5,30.11,WSW,248,4.0,5.0,41,0.00,,,0.00,meteohub,2013-08-26 19:40:00,
2013-08-26 14:45:00,98.2,69.8,30.10,NNW,338,2.0,8.0,40,0.00,,,0.00,meteohub,2013-08-26 19:45:00,
2013-08-26 14:50:00,100.2,69.3,30.10,NW,315,3.0,8.0,37,0.00,,,0.00,meteohub,2013-08-26 19:50:00,
2013-08-26 14:55:00,99.0,67.3,30.10,NW,315,4.0,5.0,36,0.00,,,0.00,meteohub,2013-08-26 19:55:00,
2013-08-26 15:00:00,97.0,67.1,30.09,North,0,2.0,7.0,38,0.00,,,0.00,meteohub,2013-08-26 20:00:00,
2013-08-26 15:05:00,98.4,69.3,30.09,East,90,8.0,8.0,39,0.00,,,0.00,meteohub,2013-08-26 20:05:00,
2013-08-26 15:10:00,100.8,68.9,30.09,SE,135,3.0,8.0,36,0.00,,,0.00,meteohub,2013-08-26 20:10:00,
2013-08-26 15:15:00,99.9,67.3,30.09,West,270,1.0,8.0,35,0.00,,,0.00,meteohub,2013-08-26 20:15:00,
2013-08-26 15:20:00,99.0,67.3,30.09,NW,315,5.0,8.0,36,0.00,,,0.00,meteohub,2013-08-26 20:20:00,
2013-08-26 15:25:00,97.3,68.2,30.08,NW,315,4.0,5.0,39,0.00,,,0.00,meteohub,2013-08-26 20:25:00,
2013-08-26 15:31:00,98.2,68.2,30.08,NW,315,2.0,5.0,38,0.00,,,0.00,meteohub,2013-08-26 20:31:00,
2013-08-26 15:36:00,96.4,68.2,30.08,NNE,23,2.0,5.0,40,0.00,,,0.00,meteohub,2013-08-26 20:36:00,
2013-08-26 15:41:00,95.9,69.1,30.08,SE,135,6.0,7.0,42,0.00,,,0.00,meteohub,2013-08-26 20:41:00,
2013-08-26 15:46:00,97.9,68.7,30.07,WSW,248,2.0,7.0,39,0.00,,,0.00,meteohub,2013-08-26 20:46:00,
2013-08-26 15:51:00,99.9,68.2,30.07,North,0,4.0,6.0,36,0.00,,,0.00,meteohub,2013-08-26 20:51:00,
2013-08-26 15:56:00,97.7,67.8,30.07,NW,315,4.0,6.0,38,0.00,,,0.00,meteohub,2013-08-26 20:56:00,
2013-08-26 16:01:00,96.1,67.8,30.08,NW,315,3.0,6.0,40,0.00,,,0.00,meteohub,2013-08-26 21:01:00,
2013-08-26 16:06:00,95.5,68.7,30.07,East,90,4.0,4.0,42,0.00,,,0.00,meteohub,2013-08-26 21:06:00,
2013-08-26 16:11:00,95.0,68.4,30.07,NNE,23,4.0,7.0,42,0.00,,,0.00,meteohub,2013-08-26 21:11:00,
2013-08-26 16:16:00,94.6,68.7,30.07,North,0,4.0,7.0,43,0.00,,,0.00,meteohub,2013-08-26 21:16:00,
2013-08-26 16:21:00,95.2,69.1,30.07,North,0,4.0,7.0,43,0.00,,,0.00,meteohub,2013-08-26 21:21:00,
2013-08-26 16:26:00,95.7,68.9,30.07,West,270,3.0,5.0,42,0.00,,,0.00,meteohub,2013-08-26 21:26:00,
2013-08-26 16:31:00,95.4,68.5,30.07,North,0,3.0,7.0,42,0.00,,,0.00,meteohub,2013-08-26 21:31:00,
2013-08-26 16:36:00,95.5,69.4,30.07,NW,315,2.0,7.0,43,0.00,,,0.00,meteohub,2013-08-26 21:36:00,
2013-08-26 16:41:00,95.9,69.8,30.07,SE,135,5.0,7.0,43,0.00,,,0.00,meteohub,2013-08-26 21:41:00,
2013-08-26 16:47:00,96.6,69.1,30.07,NW,315,4.0,7.0,41,0.00,,,0.00,meteohub,2013-08-26 21:47:00,
2013-08-26 16:52:00,96.6,69.1,30.07,North,0,4.0,5.0,41,0.00,,,0.00,meteohub,2013-08-26 21:52:00,
2013-08-26 16:57:00,96.1,68.5,30.07,NE,45,3.0,5.0,41,0.00,,,0.00,meteohub,2013-08-26 21:57:00,
2013-08-26 17:02:00,95.2,69.1,30.06,NE,45,3.0,5.0,43,0.00,,,0.00,meteohub,2013-08-26 22:02:00,
2013-08-26 17:07:00,95.5,69.4,30.06,NE,45,4.0,8.0,43,0.00,,,0.00,meteohub,2013-08-26 22:07:00,
2013-08-26 17:12:00,96.1,69.3,30.07,SE,135,7.0,8.0,42,0.00,,,0.00,meteohub,2013-08-26 22:12:00,
2013-08-26 17:17:00,96.1,69.3,30.07,NE,45,6.0,8.0,42,0.00,,,0.00,meteohub,2013-08-26 22:17:00,
2013-08-26 17:22:00,95.4,69.3,30.07,NE,45,5.0,8.0,43,0.00,,,0.00,meteohub,2013-08-26 22:22:00,
2013-08-26 17:27:00,96.8,68.5,30.07,East,90,4.0,8.0,40,0.00,,,0.00,meteohub,2013-08-26 22:27:00,
2013-08-26 17:32:00,96.8,68.5,30.07,North,0,6.0,8.0,40,0.00,,,0.00,meteohub,2013-08-26 22:32:00,
2013-08-26 17:37:00,95.4,69.3,30.06,NE,45,6.0,6.0,43,0.00,,,0.00,meteohub,2013-08-26 22:37:00,
2013-08-26 17:42:00,94.8,70.2,30.07,East,90,8.0,8.0,45,0.00,,,0.00,meteohub,2013-08-26 22:42:00,
2013-08-26 17:47:00,95.4,70.7,30.07,NE,45,4.0,8.0,45,0.00,,,0.00,meteohub,2013-08-26 22:47:00,
2013-08-26 17:52:00,96.1,70.7,30.07,NE,45,4.0,8.0,44,0.00,,,0.00,meteohub,2013-08-26 22:52:00,
2013-08-26 17:57:00,94.1,70.2,30.07,East,90,7.0,8.0,46,0.00,,,0.00,meteohub,2013-08-26 22:57:00,
2013-08-26 18:02:00,93.7,70.5,30.07,North,0,4.0,9.0,47,0.00,,,0.00,meteohub,2013-08-26 23:02:00,
2013-08-26 18:07:00,93.4,70.2,30.07,East,90,4.0,9.0,47,0.00,,,0.00,meteohub,2013-08-26 23:07:00,
2013-08-26 18:12:00,92.8,70.3,30.07,East,90,7.0,9.0,48,0.00,,,0.00,meteohub,2013-08-26 23:12:00,
2013-08-26 18:17:00,92.7,70.2,30.07,ENE,68,4.0,11.0,48,0.00,,,0.00,meteohub,2013-08-26 23:17:00,
2013-08-26 18:22:00,93.6,69.6,30.07,North,0,5.0,11.0,46,0.00,,,0.00,meteohub,2013-08-26 23:22:00,
2013-08-26 18:27:00,93.0,70.3,30.08,NNE,23,6.0,8.0,48,0.00,,,0.00,meteohub,2013-08-26 23:27:00,
2013-08-26 18:32:00,92.1,69.6,30.07,SW,225,4.0,8.0,48,0.00,,,0.00,meteohub,2013-08-26 23:32:00,
2013-08-26 18:37:00,90.7,69.4,30.08,NE,45,7.0,8.0,50,0.00,,,0.00,meteohub,2013-08-26 23:37:00,
2013-08-26 18:42:00,90.0,69.4,30.08,NE,45,3.0,8.0,51,0.00,,,0.00,meteohub,2013-08-26 23:42:00,
2013-08-26 18:47:00,90.7,70.0,30.08,North,0,4.0,8.0,51,0.00,,,0.00,meteohub,2013-08-26 23:47:00,
2013-08-26 18:52:00,91.9,70.0,30.08,North,0,4.0,8.0,49,0.00,,,0.00,meteohub,2013-08-26 23:52:00,
2013-08-26 18:57:00,92.7,70.2,30.08,SE,135,3.0,6.0,48,0.00,,,0.00,meteohub,2013-08-26 23:57:00,
2013-08-26 19:02:00,93.4,70.2,30.08,East,90,3.0,6.0,47,0.00,,,0.00,meteohub,2013-08-27 00:02:00,
2013-08-26 19:07:00,93.6,69.6,30.07,SSE,158,4.0,5.0,46,0.00,,,0.00,meteohub,2013-08-27 00:07:00,
2013-08-26 19:12:00,91.2,68.2,30.07,NE,45,4.0,5.0,47,0.00,,,0.00,meteohub,2013-08-27 00:12:00,
2013-08-26 19:17:00,89.8,67.5,30.08,North,0,2.0,5.0,48,0.00,,,0.00,meteohub,2013-08-27 00:17:00,
2013-08-26 19:22:00,88.7,67.6,30.08,NE,45,4.0,5.0,50,0.00,,,0.00,meteohub,2013-08-27 00:22:00,
2013-08-26 19:27:00,87.6,68.4,30.08,NW,315,11.0,11.0,53,0.00,,,0.00,meteohub,2013-08-27 00:27:00,
2013-08-26 19:33:00,86.9,68.2,30.08,NE,45,2.0,9.0,54,0.00,,,0.00,meteohub,2013-08-27 00:33:00,
2013-08-26 19:38:00,86.4,69.8,30.08,NE,45,5.0,11.0,58,0.00,,,0.00,meteohub,2013-08-27 00:38:00,
2013-08-26 19:43:00,85.1,71.1,30.08,NW,315,4.0,11.0,63,0.00,,,0.00,meteohub,2013-08-27 00:43:00,
2013-08-26 19:48:00,83.8,71.2,30.09,East,90,5.0,7.0,66,0.00,,,0.00,meteohub,2013-08-27 00:48:00,
2013-08-26 19:53:00,82.8,70.7,30.09,SE,135,2.0,8.0,67,0.00,,,0.00,meteohub,2013-08-27 00:53:00,
2013-08-26 19:58:00,82.2,71.1,30.09,NW,315,3.0,8.0,69,0.00,,,0.00,meteohub,2013-08-27 00:58:00,
2013-08-26 20:03:00,81.9,71.1,30.09,NE,45,6.0,8.0,70,0.00,,,0.00,meteohub,2013-08-27 01:03:00,
2013-08-26 20:08:00,81.3,71.1,30.09,North,0,4.0,8.0,71,0.00,,,0.00,meteohub,2013-08-27 01:08:00,
2013-08-26 20:13:00,80.8,70.9,30.09,NNW,338,3.0,7.0,72,0.00,,,0.00,meteohub,2013-08-27 01:13:00,
2013-08-26 20:18:00,80.1,71.1,30.10,NE,45,4.0,7.0,74,0.00,,,0.00,meteohub,2013-08-27 01:18:00,
2013-08-26 20:23:00,79.7,71.4,30.10,NE,45,5.0,8.0,76,0.00,,,0.00,meteohub,2013-08-27 01:23:00,
2013-08-26 20:28:00,79.3,71.4,30.10,North,0,6.0,8.0,77,0.00,,,0.00,meteohub,2013-08-27 01:28:00,
2013-08-26 20:33:00,79.0,71.6,30.09,North,0,2.0,8.0,78,0.00,,,0.00,meteohub,2013-08-27 01:33:00,
2013-08-26 20:38:00,78.8,71.8,30.09,NE,45,2.0,7.0,79,0.00,,,0.00,meteohub,2013-08-27 01:38:00,
2013-08-26 20:43:00,78.4,72.1,30.10,NE,45,4.0,6.0,81,0.00,,,0.00,meteohub,2013-08-27 01:43:00,
2013-08-26 20:49:00,78.1,72.1,30.10,SE,135,8.0,8.0,82,0.00,,,0.00,meteohub,2013-08-27 01:49:00,
2013-08-26 20:54:00,77.7,72.1,30.11,East,90,4.0,8.0,83,0.00,,,0.00,meteohub,2013-08-27 01:54:00,
2013-08-26 20:59:00,77.5,72.0,30.11,North,0,5.0,8.0,83,0.00,,,0.00,meteohub,2013-08-27 01:59:00,
2013-08-26 21:04:00,77.4,72.1,30.11,East,90,6.0,8.0,84,0.00,,,0.00,meteohub,2013-08-27 02:04:00,
2013-08-26 21:09:00,77.4,72.1,30.11,NW,315,4.0,9.0,84,0.00,,,0.00,meteohub,2013-08-27 02:09:00,
2013-08-26 21:14:00,77.5,72.3,30.11,NE,45,2.0,9.0,84,0.00,,,0.00,meteohub,2013-08-27 02:14:00,
2013-08-26 21:19:00,77.5,72.3,30.11,North,0,2.0,9.0,84,0.00,,,0.00,meteohub,2013-08-27 02:19:00,
2013-08-26 21:24:00,77.4,72.1,30.11,NE,45,3.0,6.0,84,0.00,,,0.00,meteohub,2013-08-27 02:24:00,
2013-08-26 21:29:00,77.4,72.5,30.11,NE,45,4.0,6.0,85,0.00,,,0.00,meteohub,2013-08-27 02:29:00,
2013-08-26 21:34:00,77.4,72.1,30.11,NE,45,4.0,6.0,84,0.00,,,0.00,meteohub,2013-08-27 02:34:00,
2013-08-26 21:39:00,77.4,72.1,30.11,NE,45,3.0,6.0,84,0.00,,,0.00,meteohub,2013-08-27 02:39:00,
2013-08-26 21:44:00,77.2,72.0,30.11,NE,45,5.0,7.0,84,0.00,,,0.00,meteohub,2013-08-27 02:44:00,
2013-08-26 21:49:00,77.0,72.1,30.11,NE,45,4.0,7.0,85,0.00,,,0.00,meteohub,2013-08-27 02:49:00,
2013-08-26 21:54:00,76.8,72.3,30.11,East,90,2.0,6.0,86,0.00,,,0.00,meteohub,2013-08-27 02:54:00,
2013-08-26 21:59:00,76.3,71.8,30.10,NE,45,2.0,6.0,86,0.00,,,0.00,meteohub,2013-08-27 02:59:00,
2013-08-26 22:04:00,76.3,71.8,30.10,NE,45,2.0,5.0,86,0.00,,,0.00,meteohub,2013-08-27 03:04:00,
2013-08-26 22:10:00,75.9,71.4,30.10,ENE,68,2.0,4.0,86,0.00,,,0.00,meteohub,2013-08-27 03:10:00,
2013-08-26 22:15:00,75.7,71.6,30.10,NE,45,2.0,4.0,87,0.00,,,0.00,meteohub,2013-08-27 03:15:00,
2013-08-26 22:20:00,75.7,71.6,30.10,NE,45,2.0,4.0,87,0.00,,,0.00,meteohub,2013-08-27 03:20:00,
2013-08-26 22:25:00,75.4,71.2,30.10,East,90,1.0,3.0,87,0.00,,,0.00,meteohub,2013-08-27 03:25:00,
2013-08-26 22:30:00,75.2,71.4,30.10,NE,45,1.0,3.0,88,0.00,,,0.00,meteohub,2013-08-27 03:30:00,
2013-08-26 22:35:00,75.0,71.6,30.11,NE,45,2.0,2.0,89,0.00,,,0.00,meteohub,2013-08-27 03:35:00,
2013-08-26 22:40:00,74.8,71.8,30.11,NE,45,2.0,2.0,90,0.00,,,0.00,meteohub,2013-08-27 03:40:00,
2013-08-26 22:45:00,74.8,71.8,30.11,NE,45,1.0,3.0,90,0.00,,,0.00,meteohub,2013-08-27 03:45:00,
2013-08-26 22:50:00,74.7,71.6,30.11,NE,45,2.0,3.0,90,0.00,,,0.00,meteohub,2013-08-27 03:50:00,
2013-08-26 22:55:00,74.7,71.6,30.11,NE,45,3.0,3.0,90,0.00,,,0.00,meteohub,2013-08-27 03:55:00,
2013-08-26 23:00:00,74.7,71.8,30.11,East,90,3.0,3.0,91,0.00,,,0.00,meteohub,2013-08-27 04:00:00,
2013-08-26 23:01:00,74.7,71.8,30.11,East,90,3.0,3.0,91,0.00,,,0.00,meteohub,2013-08-27 04:01:00,
2013-08-26 23:03:00,74.7,71.8,30.11,East,90,3.0,3.0,91,0.00,,,0.00,meteohub,2013-08-27 04:03:00,
2013-08-26 23:08:00,74.7,71.8,30.12,NE,45,3.0,3.0,91,0.00,,,0.00,meteohub,2013-08-27 04:08:00,
2013-08-26 23:13:00,74.7,71.8,30.12,NE,45,2.0,3.0,91,0.00,,,0.00,meteohub,2013-08-27 04:13:00,
2013-08-26 23:18:00,74.8,72.0,30.12,East,90,2.0,4.0,91,0.00,,,0.00,meteohub,2013-08-27 04:18:00,
2013-08-26 23:23:00,75.0,72.0,30.12,NE,45,5.0,5.0,90,0.00,,,0.00,meteohub,2013-08-27 04:23:00,
2013-08-26 23:29:00,75.2,71.4,30.12,NE,45,3.0,4.0,88,0.00,,,0.00,meteohub,2013-08-27 04:29:00,
2013-08-26 23:34:00,75.2,71.1,30.12,East,90,2.0,7.0,87,0.00,,,0.00,meteohub,2013-08-27 04:34:00,
2013-08-26 23:39:00,75.4,71.2,30.12,East,90,4.0,7.0,87,0.00,,,0.00,meteohub,2013-08-27 04:39:00,
2013-08-26 23:44:00,75.4,70.9,30.12,NE,45,2.0,4.0,86,0.00,,,0.00,meteohub,2013-08-27 04:44:00,
2013-08-26 23:49:00,75.2,70.7,30.12,NE,45,3.0,4.0,86,0.00,,,0.00,meteohub,2013-08-27 04:49:00,
2013-08-26 23:54:00,75.0,71.2,30.12,East,90,2.0,4.0,88,0.00,,,0.00,meteohub,2013-08-27 04:54:00,
2013-08-26 23:59:00,74.8,71.1,30.12,ENE,68,3.0,4.0,88,0.00,,,0.00,meteohub,2013-08-27 04:59:00,